Simultaneous Nadir Overpasses (SNOs) Predictions

Prediction of SNOs between NOAA-20 and NOAA-19 Satellite Orbit:

Table of predicted SNOs for the next 14.0 days since TLE Epoch: 4/13/2018
Index Date (NOAA-20) Time (NOAA-20) Lat,Lon (NOAA-20) SZA (NOAA-20 ) Date (NOAA-19) Time (NOAA-19) Lat,Lon (NOAA-19) SZA (NOAA-19 ) Distance(km) Time Diff (sec)
1 04/24/2018 02:28:35 80.58, 97.14 70.63 04/24/2018 02:27:26 80.59, 97.01 70.69 2.70 69
2 04/24/2018 03:19:21 -80.60, -95.89 109.33 04/24/2018 03:18:25 -80.58, -95.87 109.31 1.77 56
3 04/24/2018 04:10:05 80.58, 71.72 70.62 04/24/2018 04:09:27 80.59, 71.58 70.66 2.88 38
4 04/24/2018 05:00:51 -80.60,-121.31 109.35 04/24/2018 05:00:26 -80.59,-121.30 109.34 1.70 25
5 04/24/2018 05:51:35 80.58, 46.30 70.60 04/24/2018 05:51:28 80.60, 46.15 70.63 3.06 7
6 04/24/2018 06:42:21 -80.61,-146.73 109.36 04/24/2018 06:42:27 -80.59,-146.72 109.38 1.64 6
7 04/24/2018 07:33:05 80.59, 20.88 70.58 04/24/2018 07:33:29 80.60, 20.72 70.60 3.25 24
8 04/24/2018 08:23:51 -80.61,-172.15 109.38 04/24/2018 08:24:28 -80.59,-172.15 109.41 1.58 37
9 04/24/2018 09:14:36 80.61, -4.88 70.62 04/24/2018 09:15:30 80.60, -4.71 70.57 3.21 54




NCC Satellite Simultaneous Nadir Overpasses (SNOs) Prediction Service
